TimeCDT,TemperatureF,Dew PointF,Humidity,Sea Level PressureIn,VisibilityMPH,Wind Direction,Wind SpeedMPH,Gust SpeedMPH,PrecipitationIn,Events,Conditions,WindDirDegrees,DateUTC
12:53 AM,66.0,63.0,90,29.63,10.0,WNW,5.8,-,N/A,,Clear,290,2013-06-29 05:53:00
1:53 AM,64.9,63.0,93,29.62,10.0,WSW,4.6,-,N/A,,Clear,250,2013-06-29 06:53:00
2:53 AM,64.9,63.0,93,29.62,10.0,West,5.8,-,N/A,,Clear,270,2013-06-29 07:53:00
3:53 AM,64.0,62.1,93,29.62,10.0,West,5.8,-,N/A,,Clear,270,2013-06-29 08:53:00
4:53 AM,63.0,61.0,93,29.62,10.0,West,5.8,-,N/A,,Clear,270,2013-06-29 09:53:00
5:53 AM,63.0,61.0,93,29.63,10.0,WNW,4.6,-,N/A,,Partly Cloudy,290,2013-06-29 10:53:00
6:53 AM,66.0,63.0,90,29.63,10.0,WNW,5.8,-,N/A,,Clear,300,2013-06-29 11:53:00
7:53 AM,69.1,64.0,84,29.63,10.0,NW,11.5,-,N/A,,Clear,310,2013-06-29 12:53:00
8:12 AM,69.8,64.4,83,29.65,10.0,WNW,6.9,-,N/A,,Mostly Cloudy,300,2013-06-29 13:12:00
8:53 AM,70.0,64.0,81,29.64,10.0,NW,6.9,-,N/A,,Mostly Cloudy,320,2013-06-29 13:53:00
9:53 AM,71.1,64.9,81,29.63,10.0,WNW,5.8,-,0.00,Rain,Light Rain,290,2013-06-29 14:53:00
10:00 AM,71.6,64.4,78,29.64,10.0,WNW,9.2,-,0.00,,Mostly Cloudy,290,2013-06-29 15:00:00
10:33 AM,71.6,64.4,78,29.64,10.0,WNW,6.9,-,0.01,,Overcast,290,2013-06-29 15:33:00
10:53 AM,72.0,64.0,76,29.62,10.0,West,11.5,-,0.01,,Overcast,280,2013-06-29 15:53:00
11:32 AM,71.6,64.4,78,29.64,10.0,West,8.1,-,N/A,,Overcast,270,2013-06-29 16:32:00
11:53 AM,73.9,66.0,76,29.62,10.0,West,11.5,-,N/A,,Mostly Cloudy,280,2013-06-29 16:53:00
12:20 PM,69.8,64.4,83,29.63,2.0,WNW,13.8,21.9,0.06,Rain,Rain,300,2013-06-29 17:20:00
12:22 PM,69.8,64.4,83,29.63,1.8,WNW,12.7,21.9,0.07,Rain,Heavy Rain,300,2013-06-29 17:22:00
12:30 PM,68.0,64.4,88,29.63,3.0,NW,9.2,-,0.08,Rain,Rain,320,2013-06-29 17:30:00
12:53 PM,72.0,64.9,78,29.62,10.0,North,10.4,-,0.08,,Overcast,360,2013-06-29 17:53:00
1:07 PM,68.0,64.4,88,29.64,1.8,NW,10.4,19.6,0.06,Rain,Rain,310,2013-06-29 18:07:00
1:14 PM,69.8,64.4,83,29.64,3.0,NNW,9.2,-,0.07,Rain,Rain,340,2013-06-29 18:14:00
1:31 PM,66.2,64.4,94,29.65,1.8,North,12.7,16.1,0.16,Rain,Heavy Rain,10,2013-06-29 18:31:00
1:41 PM,66.2,64.4,94,29.65,3.0,North,8.1,-,0.18,Rain,Light Rain,10,2013-06-29 18:41:00
1:53 PM,68.0,64.9,90,29.64,10.0,North,8.1,-,0.18,,Overcast,360,2013-06-29 18:53:00
2:53 PM,69.1,64.0,84,29.65,10.0,Calm,Calm,-,0.02,Rain,Light Rain,0,2013-06-29 19:53:00
3:53 PM,71.1,66.0,84,29.63,10.0,NW,5.8,-,0.01,,Mostly Cloudy,320,2013-06-29 20:53:00
4:05 PM,71.6,66.2,83,29.65,10.0,Variable,4.6,-,N/A,,Mostly Cloudy,0,2013-06-29 21:05:00
4:53 PM,72.0,64.9,78,29.63,10.0,NNW,4.6,-,N/A,,Mostly Cloudy,330,2013-06-29 21:53:00
5:48 PM,69.8,62.6,78,29.64,10.0,North,11.5,-,0.00,,Scattered Clouds,350,2013-06-29 22:48:00
5:53 PM,70.0,63.0,78,29.63,10.0,North,10.4,-,0.00,,Partly Cloudy,360,2013-06-29 22:53:00
6:53 PM,68.0,63.0,84,29.65,10.0,North,11.5,-,N/A,,Partly Cloudy,10,2013-06-29 23:53:00
7:53 PM,66.0,61.0,84,29.67,10.0,NNE,9.2,-,N/A,,Scattered Clouds,30,2013-06-30 00:53:00
8:53 PM,66.0,63.0,90,29.69,10.0,NNE,12.7,-,0.00,Rain,Light Rain,30,2013-06-30 01:53:00
9:53 PM,66.9,63.0,87,29.71,10.0,NNE,13.8,-,0.00,,Overcast,20,2013-06-30 02:53:00
10:53 PM,66.0,62.1,87,29.71,10.0,NNE,10.4,-,N/A,,Overcast,20,2013-06-30 03:53:00
11:53 PM,64.9,62.1,90,29.72,10.0,NNE,9.2,-,N/A,,Partly Cloudy,20,2013-06-30 04:53:00